TimeEDT,TemperatureF,Dew PointF,Humidity,Sea Level PressureIn,VisibilityMPH,Wind Direction,Wind SpeedMPH,Gust SpeedMPH,PrecipitationIn,Events,Conditions,WindDirDegrees,DateUTC
12:52 AM,66.0,62.1,87,30.20,10.0,Calm,Calm,-,0.00,Rain,Light Rain,0,2012-10-04 04:52:00
1:52 AM,66.0,62.1,87,30.19,10.0,Calm,Calm,-,0.01,,Overcast,0,2012-10-04 05:52:00
2:52 AM,66.0,63.0,90,30.19,10.0,Calm,Calm,-,N/A,,Overcast,0,2012-10-04 06:52:00
3:52 AM,64.9,63.0,93,30.18,10.0,Calm,Calm,-,N/A,,Overcast,0,2012-10-04 07:52:00
4:52 AM,66.0,63.0,90,30.19,10.0,Calm,Calm,-,N/A,,Overcast,0,2012-10-04 08:52:00
5:52 AM,66.0,63.0,90,30.20,10.0,Calm,Calm,-,N/A,,Overcast,0,2012-10-04 09:52:00
6:52 AM,66.0,64.0,93,30.23,8.0,SSW,3.5,-,0.00,,Overcast,210,2012-10-04 10:52:00
7:52 AM,66.0,64.0,93,30.22,5.0,Calm,Calm,-,N/A,,Overcast,0,2012-10-04 11:52:00
8:52 AM,66.9,64.0,90,30.24,8.0,Calm,Calm,-,N/A,,Overcast,0,2012-10-04 12:52:00
9:52 AM,68.0,64.0,87,30.25,10.0,Calm,Calm,-,N/A,,Overcast,0,2012-10-04 13:52:00
10:52 AM,71.1,63.0,75,30.25,10.0,WNW,3.5,-,N/A,,Mostly Cloudy,290,2012-10-04 14:52:00
11:52 AM,72.0,63.0,73,30.25,10.0,WNW,4.6,-,N/A,,Mostly Cloudy,290,2012-10-04 15:52:00
12:52 PM,75.9,61.0,60,30.23,10.0,North,3.5,-,N/A,,Mostly Cloudy,350,2012-10-04 16:52:00
1:52 PM,75.9,59.0,56,30.21,10.0,Calm,Calm,-,N/A,,Mostly Cloudy,0,2012-10-04 17:52:00
2:52 PM,79.0,59.0,50,30.19,10.0,Calm,Calm,-,N/A,,Mostly Cloudy,0,2012-10-04 18:52:00
3:52 PM,81.0,57.9,45,30.18,10.0,NNW,4.6,-,N/A,,Scattered Clouds,330,2012-10-04 19:52:00
4:52 PM,80.1,57.0,45,30.17,10.0,NNW,3.5,-,N/A,,Scattered Clouds,340,2012-10-04 20:52:00
5:52 PM,79.0,55.9,45,30.17,10.0,WNW,3.5,-,N/A,,Scattered Clouds,300,2012-10-04 21:52:00
6:52 PM,73.9,57.9,57,30.17,10.0,Calm,Calm,-,N/A,,Scattered Clouds,0,2012-10-04 22:52:00
7:52 PM,71.1,57.0,61,30.17,10.0,Calm,Calm,-,N/A,,Scattered Clouds,0,2012-10-04 23:52:00
8:52 PM,69.8,59.0,68,30.20,10.0,Calm,Calm,-,N/A,,Partly Cloudy,0,2012-10-05 00:52:00
9:52 PM,68.0,59.0,73,30.19,10.0,Calm,Calm,-,N/A,,Scattered Clouds,0,2012-10-05 01:52:00
10:52 PM,63.0,59.0,87,30.22,10.0,NNW,5.8,-,N/A,,Scattered Clouds,340,2012-10-05 02:52:00
11:52 PM,64.9,60.1,84,30.22,10.0,Calm,Calm,-,N/A,,Scattered Clouds,0,2012-10-05 03:52:00